Location: Unspecified
(0.0000°N, 0.0000°E)
Time: 23:39:29
(UTC+00:00)

Explorer 7 - Pass Details

Date: 24 July 2019
Orbit: 485 x 680 km, 50.3° (Epoch: 16 August)

Event Time Altitude Azimuth Distance (km) Brightness Sun altitude
Rises 18:33:48 0° 252° (WSW) 2,799 11.4 -6.4°
Reaches altitude 10° 18:37:27 10° 283° (WNW) 1,842 11.2 -7.3°
Maximum altitude 18:39:05 12° 306° (NW) 1,690 10.7 -7.6°
Drops below altitude 10° 18:40:41 10° 330° (NNW) 1,792 10.3 -8.0°
Sets 18:44:08 0° 2° (N) 2,630 10.5 -8.8°
